Location: Newark
(33.6333°S, 78.8500°W)
Time: 19:54:25
(UTC+00:00)

Tiros 1 despin weight - Pass Details

Date: 24 September 2019
Orbit: 594 x 643 km, 48.2° (Epoch: 15 October)

Event Time Altitude Azimuth Distance (km) Brightness Sun altitude
Rises 07:47:49 0° 228° (SW) 2,929 - -39.3°
Reaches altitude 10° 07:51:04 10° 205° (SSW) 2,030 - -38.7°
Maximum altitude 07:53:49 15° 169° (SSE) 1,713 - -38.3°
Exits shadow 07:55:20 13° 147° (SSE) 1,818 ? -38.0°
Drops below altitude 10° 07:56:35 10° 132° (SE) 2,042 ? -37.8°
Sets 07:59:52 0° 109° (ESE) 2,955 ? -37.2°
